Regional Weather Roundup
Issued by NWS

Home | Current Version | Previous Version | Graphics & Text | Print | Product List | Glossary Off
Versions: 1 2 3 4 5 6 7 8 9 10 11 12 13 14 15 16 17 18 19 20 21 22 23 24 25 26 27 28 29 30 31 32 33 34 35 36 37 38 39 40 41 42 43 44 45 46 47 48 49 50

000
ASUS43 KDMX 051707
RWRIA

WEATHER ROUNDUP FOR IOWA
NATIONAL WEATHER SERVICE DES MOINES IA
1100 AM CST THU MAR 05 2015

NOTE: "FAIR" INDICATES FEW OR NO CLOUDS BELOW 12,000 FEET WITH NO
SIGNIFICANT WEATHER AND/OR OBSTRUCTIONS TO VISIBILITY.

* - THESE STATIONS ARE NOT NWS STATIONS...THUS NOT UNDER NWS
QUALITY CONTROL.  THEY ALSO DO NOT REPORT WEATHER SUCH
AS PRECIPITATION OR FOG.

IAZ001>003-012>014-020>022-031>034-043>046-051800-
   NORTHWEST IOWA

CITY           SKY/WX    TMP DP  RH WIND       PRES   REMARKS
CARROLL *      SUNNY     10  -4  52 VRB6      30.54S WCI   1
CHEROKEE *     SUNNY      9  -2  61 SW6       30.51F WCI  -1
DENISON *      SUNNY     10  -2  56 SW7       30.51F WCI   0
LE MARS *      SUNNY     14   1  57 S8G15     30.50F WCI   3
ORANGE CITY *  SUNNY     12   0  57 SW9       30.47F WCI   0
SHELDON *      SUNNY     10  -4  52 SW9       30.46F WCI  -2
SIOUX CITY     SUNNY     17   0  47 S5        30.52F WCI  10
SPENCER        SUNNY      8  -5  55 SW8       30.49F WCI  -4
STORM LAKE *   SUNNY      9  -4  56 SW6       30.50S WCI  -1
$$

IAZ055>058-069>071-079>083-090>094-051800-
   SOUTHWEST IOWA

CITY           SKY/WX    TMP DP  RH WIND       PRES   REMARKS
ATLANTIC *     SUNNY     12  -2  52 CALM      30.56S
AUDUBON *      SUNNY     12  -2  52 W6        30.53S WCI   3
CLARINDA *     SUNNY     16  -2  45 NW5G12    30.60S WCI   9
COUNCIL BLFS * SUNNY     16   0  48 CALM      30.53F
CRESTON *      SUNNY     12  -4  48 NW6G14    30.55S WCI   3
HARLAN  *      SUNNY     12   0  57 W3        30.58F
LAMONI         SUNNY     13  -2  51 NW8       30.56S WCI   2
RED OAK *      SUNNY     16   0  48 CALM      30.57F
SHENANDOAH *   SUNNY     16  -2  45 VRB3      30.59F
$$

IAZ047>049-059>061-072>074-084-051800-
   CENTRAL IOWA

CITY           SKY/WX    TMP DP  RH WIND       PRES   REMARKS
AMES           SUNNY      8  -6  52 NW5       30.57F WCI   0
ANKENY *       SUNNY      9  -8  47 VRB7      30.58F WCI  -3
CHARITON *     SUNNY     12  -2  52 NW8       30.56F WCI   1
DES MOINES     SUNNY     11  -5  48 N8        30.57F WCI  -1
GRINNELL*      SUNNY      7  -4  61 NW7       30.57S WCI  -5
KNOXVILLE *    SUNNY      9  -6  52 NW8       30.57S WCI  -4
MARSHALLTOWN   SUNNY      3  -5  69 NW6       30.56S WCI  -8
PELLA *        SUNNY     10   0  61 NW8       30.60S WCI  -1
PERRY *          N/A     10  -2  56 W5        30.57S WCI   2
$$

IAZ004>006-015-016-023>025-035-036-051800-
   NORTH CENTRAL IOWA

CITY           SKY/WX    TMP DP  RH WIND       PRES   REMARKS
ALGONA *       SUNNY      7 N/A N/A SW6       30.52F WCI  -3
CLARION *      SUNNY      7  -2  66 SW8       30.54S WCI  -6
ESTHERVILLE    SUNNY      5  -5  63 SW10      30.48F WCI -10
FORT DODGE *   SUNNY      7  -8  51 SW5       30.55S WCI  -2
MASON CITY     SUNNY      3  -5  69 W5        30.53F WCI  -6
FOREST CITY *  SUNNY      7  -6  56 W6        30.51F WCI  -3
IOWA FALLS *     N/A      7  -4  61 W8        30.55S HAZE    WCI  -6
$$

IAZ007>011-017>019-026>030-037>042-050>054-066-051800-
   NORTHEAST IOWA

CITY           SKY/WX    TMP DP  RH WIND       PRES   REMARKS
CEDAR RAPIDS   SUNNY      4  -4  69 NW8       30.56R WCI  -9
CHARLES CITY * SUNNY      3  -8  60 W6        30.54S WCI  -8
CLINTON *      SUNNY      5  -2  72 W3        30.57S
DECORAH *      SUNNY      5 -11  47 VRB6G12   30.50S WCI  -6
DUBUQUE        SUNNY      7  -7  52 NW7       30.51R WCI  -5
MONTICELLO *   SUNNY      5  -6  61 W7        30.55R WCI  -7
OELWEIN *      SUNNY      3  -8  60 NW6       30.54S WCI  -8
WATERLOO       SUNNY      5  -6  60 NW6       30.56S WCI  -6
$$

IAZ064-065-067-068-078-051800-
   EAST CENTRAL IOWA

CITY           SKY/WX    TMP DP  RH WIND       PRES   REMARKS
DAVENPORT      SUNNY      5  -4  66 W6        30.56R WCI  -6
IOWA CITY      SUNNY      6  -6  57 NW14      30.60R WCI -11
MT. PLEASANT * SUNNY     10  -6  48 NW10      30.59R WCI  -3
MUSCATINE *    SUNNY      9  -2  61 NW9G18    30.60S WCI  -5
QUAD CITIES    SUNNY      9  -3  58 NW8       30.56S WCI  -3
$$

IAZ062-063-075>077-085>089-095>099-051800-
   SOUTHEAST IOWA

CITY           SKY/WX    TMP DP  RH WIND       PRES   REMARKS
BURLINGTON     SUNNY      9  -3  58 W10       30.58R WCI  -5
FAIRFIELD *    SUNNY      9  -6  52 NW14      30.59R WCI  -8
FORT MADISON * SUNNY      9  -2  61 NW10      30.59R WCI  -6
KEOKUK *       SUNNY     12  -2  52 NW8G15    30.58S WCI   1
OSKALOOSA *      N/A      9  -2  61 N8        30.59S WCI  -4
CENTERVILLE *  SUNNY     12   1  62 NW5       30.58S WCI   4
OTTUMWA        SUNNY     12  -3  51 N14       30.58S WCI  -3
WASHINGTON *   SUNNY      9  -2  61 NW13      30.59R WCI  -7
$$

ABBREVIATIONS USED IN REMARKS
   TC - TEMPERATURES IN CELSIUS
  WCI - WIND CHILL INDEX
   HX - HEAT INDEX
  VSB - VISIBILITY
$$




USA.gov is the U.S. government's official web portal to all federal, state and local government web resources and services.